Location: Bailleul
(50.3375°N, 2.8513°E)
Time: 20:41:19
(UTC+00:00)

Cosmos 44 Rocket - Pass Details

Date: 19 April 2021
Orbit: 636 x 754 km, 65.1° (Epoch: 18 May)

Event Time Altitude Azimuth Distance (km) Brightness Sun altitude
Exits shadow 21:37:23 39° 93° (E) 1,105 4.0 -22.0°
Drops below altitude 10° 21:41:24 10° 50° (NE) 2,272 6.0 -22.3°
Sets 21:43:54 0° 44° (NE) 3,208 6.9 -22.5°
